1381107025495,0.000157848
1381107085495,0.000158300
1381107145495,0.000158200
1381107205495,0.000158224
1381107265495,0.000157290
1381110625505,0.000160126
1381110685505,0.000156858
1381110745505,0.000155982
1381110805505,0.000157965
1381110865505,0.000158617
1381114225515,0.000156980
1381114285515,0.000158096
1381114345515,0.000157372
1381114405515,0.000158528
1381114465515,0.000157651
1381117825525,0.000159949
1381117885525,0.000157666
1381117945525,0.000159152
1381118005525,0.000157088
1381118065525,0.000158208
1381121425535,0.000159480
1381121485535,0.000158682
1381121545535,0.000161110
1381121605535,0.000159122
1381121665535,0.000158961
1381125025544,0.000157686
1381125085544,0.000158989
1381125145544,0.000160582
1381125205544,0.000159554
1381125265544,0.000158648
1381128625554,0.000157476
1381128685554,0.000157480
1381128745554,0.000159194
1381128805554,0.000160120
1381128865554,0.000160351
1381132225564,0.000157421
1381132285564,0.000159409
1381132345564,0.000160532
1381132405564,0.000159529
1381132465564,0.000160829
1381135825574,0.000160463
1381135885574,0.000158662
1381135945574,0.000160793
1381136005574,0.000158575
1381136065574,0.000160173
1381139425585,0.000160862
1381139485585,0.000158442
1381139545585,0.000157339
1381139605585,0.000159710
1381139665585,0.000160268
1381143025595,0.000158798
1381143085595,0.000158591
1381143145595,0.000158467
1381143205595,0.000160204
1381143265595,0.000158849
1381146625606,0.000160636
1381146685606,0.000159285
1381146745606,0.000158646
1381146805606,0.000159851
1381146865605,0.000159268
1381150225616,0.000158812
1381150285616,0.000160327
1381150345616,0.000159678
1381150405616,0.000160668
1381150465616,0.000161329
1381153825627,0.000160336
1381153885627,0.000161341
1381153945627,0.000162081
1381154005627,0.000161450
1381154065627,0.000161394
1381157425639,0.000161467
1381157485639,0.000163875
1381157545639,0.000162615
1381157605639,0.000161159
1381157665639,0.000162872
1381161025650,0.000165052
1381161085650,0.000164089
1381161145650,0.000164009
1381161205650,0.000162833
1381161265650,0.000162347
1381164625662,0.000161545
1381164685662,0.000160305
1381164745662,0.000162238
1381164805662,0.000161315
1381164865662,0.000164174
1381168225673,0.000159777
1381168285673,0.000159163
1381168345673,0.000160225
1381168405673,0.000159930
1381168465673,0.000159997
1381171825685,0.000159750
1381171885685,0.000160913
1381171945685,0.000161251
1381172005685,0.000160017
1381172065685,0.000160990
1381175425696,0.000160848
1381175485696,0.000160946
1381175545696,0.000160577
1381175605696,0.000159274
1381175665696,0.000161303
1381179025707,0.000160782
1381179085707,0.000160370
1381179145707,0.000158901
1381179205707,0.000158967
1381179265707,0.000159603
1381182625718,0.000159400
1381182685718,0.000158988
1381182745718,0.000158612
1381182805718,0.000161012
1381182865718,0.000160177
1381186225729,0.000160490
1381186285729,0.000160067
1381186345729,0.000158927
1381186405729,0.000162139
1381186465729,0.000160486
1381189825740,0.000159242
1381189885740,0.000160366
1381189945740,0.000160196
1381190005740,0.000160593
1381190065740,0.000159710
